Portage Invitational 2013 vs Portage Invitational 2011

Aggregate Data Points
Difference This Meet That Meet
Overall Athletes +3031 4045 1014
Overall Average +1:48.26 22:00.08 20:11.82
1st-10th Place -1.77 15:44.67 15:46.44
1st-25th Place -5.03 15:57.88 16:02.91
1st-50th Place -10.00 16:09.24 16:19.24
1st-100th Place -14.96 16:23.70 16:38.66
Common Athletes -- -- 274
Ran Faster 126 200 74
Ran Season Best -244 30 274
Average Time -30.69 19:57.63 20:28.32
Median Time -29.70 19:41.00 20:10.70
Middle 80% Times -32.94 19:47.19 20:20.14
Top 10% Times -47.62 16:17.76 17:05.39
Top 25% Times -52.17 16:52.43 17:44.60
Top 50% Times -52.39 17:44.51 18:36.90
Bottom 50% Times -8.99 22:10.75 22:19.74
Bottom 25% Times +2.19 23:42.88 23:40.69
Bottom 10% Times +5.99 25:15.71 25:09.72
Average Difference -30.69 -- --
Median Difference -1:32.60 -- --
Middle 80% Difference -33.98 -- --
Top 10% Difference -35.22 -- --
Top 50% Difference -50.09 -- --
Top 25% Difference -40.39 -- --
Top 50% Difference -50.09 -- --
Bottom 50% Difference -11.30 -- --
Bottom 25% Difference -1.59 -- --
Bottom 10% Difference +8.87 -- --

Performances of Common Athletes
Athlete Team Difference This Meet That Meet
Grant Fisher Grand Blanc -1:33.20 15:10.80 16:44.00
Costa Willets Ann Arbor Pioneer -1:01.60 15:42.80 16:44.40
Austin Sargent Cedar Springs -1:37.00 15:50.20 17:27.20
Matt Thomas Port Huron Northern -1:06.60 15:50.50 16:57.10
Jareb Duggan Hartland -45.90 15:51.00 16:36.90
Lucas Arrivo Ann Arbor Pioneer -1:51.70 15:51.20 17:42.90
Logan Wetzel Saline -35.20 16:00.30 16:35.50
Mason Vandyke Mason -8.10 16:07.20 16:15.30
Jon Russell Ann Arbor Skyline -1:32.40 16:08.40 17:40.80
Charlie Felton St. Joseph -24.60 16:13.80 16:38.40
David Trimas Chelsea -3:23.90 16:14.60 19:38.50
Nathan Vanderroest South Haven -1:18.80 16:15.80 17:34.60
Cal Morgan Grand Rapids Forest Hills Northern -1:13.70 16:19.50 17:33.20
John Sattler Byron Center -34.10 16:24.20 16:58.30
Jacob Stubbs Chelsea -1:10.80 16:25.00 17:35.80
Jake Coulter Wyandotte Roosevelt -1:18.70 16:26.90 17:45.60
Paul Pioszak Mason -1:20.30 16:27.60 17:47.90
Sam Butler Richland Gull Lake -58.90 16:30.60 17:29.50
Matthew Ritter Ludington -59.60 16:31.40 17:31.00
Jack Lindsay Hudsonville -50.00 16:32.10 17:22.10
Cody Smith St. Clair -1.00 16:32.50 16:33.50
Stephen Pfahler St. Joseph -19.90 16:37.70 16:57.60
Cameron Karagitz Brownstown Woodhaven -1:49.50 16:38.00 18:27.50
Jack Twarozynski Grand Ledge -40.90 16:40.80 17:21.70
Cam Herron Wyandotte Roosevelt -3:28.90 16:42.80 20:11.70
Ty Dickinson Port Huron Northern -50.40 16:43.50 17:33.90
Dillyn Foy Grand Blanc -12.30 16:43.90 16:56.20
Tanner Rydleski St. Joseph -1:32.90 16:44.30 18:17.20
Evan Williams Portage Northern -50.50 16:44.70 17:35.20
Alex Kulpa Portage Northern -1:52.90 16:46.40 18:39.30
David Mckinley Okemos +24.80 17:13.10 16:48.30
Zak Longo East Grand Rapids -1:19.10 16:48.40 18:07.50
Pat Gavitt Hartland -1:06.70 16:49.20 17:55.90
Chance Miller Hastings -2:25.80 16:51.00 19:16.80
Rylan Jaglowski Grand Rapids Catholic Central -2:42.10 16:51.40 19:33.50
John Niska Pinckney -2:09.70 16:52.40 19:02.10
Mitch Kolito DeWitt -2:13.50 16:52.70 19:06.20
Aaron Strieff Zeeland West -2:29.80 16:55.10 19:24.90
Cass Millenbach Grandville +0.20 16:55.70 16:55.50
Andrew Truszkowski Grand Rapids Catholic Central -1:44.50 16:58.20 18:42.70
Dillon Braun Ionia -12.70 16:58.80 17:11.50
Logan Bellgraph Grandville -2:12.90 16:59.50 19:12.40
Turner Sale Grand Haven -13.20 17:00.20 17:13.40
Chris Snow Ludington -1:17.40 17:00.20 18:17.60
Austin Kromroy St. Clair -1:44.70 17:00.30 18:45.00
Jacob Hanson Mason +3:32.80 20:35.10 17:02.30
Nicholas Voth Grand Blanc -2:00.10 17:06.40 19:06.50
Luke Schwass Ludington -1:48.30 17:07.00 18:55.30
Daniel Kroth Okemos -18.40 17:08.10 17:26.50
Ian Everitt South Haven -8.80 17:10.80 17:19.60
Devon Main Hudsonville +8.60 17:22.40 17:13.80
Ronnie Collins Hastings -1:50.10 17:15.40 19:05.50
Landrum Neer Culver Academies -26.70 17:16.00 17:42.70
Jensen Miller Caledonia -18.10 17:23.90 17:42.00
Patrick Wagner Howell -4.30 17:25.20 17:29.50
Abe Rycus Ann Arbor Skyline -1:28.10 17:31.50 18:59.60
Alex Clark East Grand Rapids -25.30 17:34.30 17:59.60
Lauren Brasure Rockford -2:47.70 17:36.00 20:23.70
Flynn Darby Caledonia -0.90 17:36.00 17:36.90
Curtis Jewett Fremont -1:32.30 17:36.40 19:08.70
Kevin Elliott Grand Rapids Kenowa Hills -1:55.60 17:36.50 19:32.10
Jon Haadsma Battle Creek Lakeview -1:32.20 17:37.60 19:09.80
Joe Abel Carleton Airport -1:11.80 17:40.10 18:51.90
Gabe Momber Grand Rapids Kenowa Hills -1:02.60 17:41.90 18:44.50
Jack Abernethy Chelsea -41.00 17:43.90 18:24.90
Grant Hamilton Hartland -18.30 17:44.90 18:03.20
Joe Veeder Kalamazoo Loy Norrix -3:13.40 17:45.50 20:58.90
Luke Simonds Grand Rapids Kenowa Hills -20.80 17:45.90 18:06.70
Brad Hunt Port Huron Northern -35.20 17:48.20 18:23.40
Zach Duff Grand Haven -1.90 17:49.40 17:51.30
Kyle White Okemos -41.40 17:51.70 18:33.10
Cameron Sleeper South Haven -1:13.60 17:53.40 19:07.00
Luis Dekryger Grand Rapids South Christian -20.50 17:54.50 18:15.00
John Castle Fremont +10.20 18:05.60 17:55.40
Hayden Waterhouse Vicksburg +10.50 18:06.20 17:55.70
Andrew Vandebunte Byron Center -1:46.50 17:56.00 19:42.50
Connor Bolthouse Spring Lake -1:14.40 17:56.30 19:10.70
Colin Read Battle Creek Lakeview -11.60 17:57.60 18:09.20
Bram Parkinson Chelsea -25.50 17:58.40 18:23.90
Ryan Publiski Carleton Airport -1:39.60 17:58.90 19:38.50
Pat Taylor Muskegon Mona Shores -25.90 18:00.00 18:25.90
Kris Childers Brownstown Woodhaven +4.10 18:05.20 18:01.10
T.j. Deyarmond Howell +5.30 18:06.50 18:01.20
Brad Worthington Portage Central -29.70 18:03.80 18:33.50
Joe Jordan Grand Rapids Kenowa Hills -1:30.90 18:03.90 19:34.80
Micah Maness Allendale +14.80 18:21.30 18:06.50
Eric Cichon East Kentwood -27.30 18:06.90 18:34.20
Morgan Posthuma Grand Rapids Forest Hills Northern -2:00.60 18:07.00 20:07.60
Ben Jensen Ludington -1:49.80 18:07.10 19:56.90
Tony Patino Grand Ledge -39.50 18:07.70 18:47.20
Randall Warners Grand Rapids South Christian -31.00 18:08.60 18:39.60
Max Lezon Temperance-Bedford -11.70 18:10.20 18:21.90
Jovy Bileth Wayland Union -2:17.10 18:12.00 20:29.10
Peter Mack East Grand Rapids -1:17.10 18:14.80 19:31.90
Megan O'Neil Remus Chippewa Hills -1:36.00 18:17.00 19:53.00
Kerianne Schoff Rockford -2:32.10 18:17.00 20:49.10
Ellie Leonard Jenison -1:41.00 18:17.00 19:58.00
Jared Zink Jenison -1:38.30 18:19.70 19:58.00
Brian Connelly Jenison -7:25.70 18:20.40 25:46.10
Mack Evans Portage Northern -37.70 18:20.70 18:58.40
Nathan Mulder Holland Christian -1:29.50 18:22.30 19:51.80
Michael Gale-butto Muskegon Mona Shores -58.90 18:24.70 19:23.60
Zachary Kenreich South Haven -1:50.60 18:25.10 20:15.70
Alex Garvin Traverse City West +30.60 18:57.10 18:26.50
Brennan Steenhoek Wayland Union -40.00 18:29.90 19:09.90
Ashley Ko Traverse City Central -1:25.60 18:30.00 19:55.60
Hunter Foco Zeeland West -1:03.30 18:32.50 19:35.80
Kelli Jackson Hudsonville -1:23.40 18:33.00 19:56.40
Cameron Andrews Kalamazoo Central -42.00 18:34.90 19:16.90
Kelli Nesky Hudsonville Unity Christian -56.90 18:35.00 19:31.90
Brode Breuker Fremont +1:40.90 20:22.30 18:41.40
Bailey Johnson Jenison -1:28.30 18:43.00 20:11.30
Nick Gaunt Kalamazoo Loy Norrix -35.00 18:44.20 19:19.20
Josh Norton Coldwater -39.30 18:44.80 19:24.10
Alexis Miller Grand Rapids South Christian -36.10 18:45.00 19:21.10
Colby Clark Stevensville-Lakeshore +46.50 19:33.00 18:46.50
Andrew Vanzytveld Hudsonville Unity Christian -1:09.90 18:48.50 19:58.40
Matt Gesink Grand Rapids South Christian +14.00 19:03.70 18:49.70
Morgan Harney Rockford -1:32.60 18:50.00 20:22.60
Jacob Lentz DeWitt +2:15.90 21:07.80 18:51.90
Molly Peregrine Traverse City Central -31.60 18:55.00 19:26.60
Mac Westra Portage Central +45.60 19:43.40 18:57.80
Adam Russell Monroe -1:45.20 18:57.80 20:43.00
Claire Borchers Grand Haven -32.20 18:59.00 19:31.20
Makenzie Evers Plainwell -31.50 19:01.00 19:32.50
Natalie Monroe Brighton -1:08.70 19:02.00 20:10.70
Jason Black-joseph Allendale +2:27.70 21:31.20 19:03.50
Gabrielle Perrin Vicksburg -30.50 19:05.00 19:35.50
Dakota Bostic Carleton Airport +25.50 19:31.70 19:06.20
Tj Leach Coopersville +22.90 19:30.80 19:07.90
Abby Rentschler Saline -3.60 19:09.00 19:12.60
Sydney Elmer Linden -10.80 19:11.00 19:21.80
Alex Barton South Haven -55.90 19:12.80 20:08.70
Rachael Webb Grandville -2:40.90 19:15.00 21:55.90
Emily Starck Remus Chippewa Hills +1:20.20 20:41.00 19:20.80
Chelse Vanspronsen Jenison -1:20.70 19:24.00 20:44.70
Carlyn Arteaga Spring Lake -1:27.60 19:28.00 20:55.60
Mary Kostielney Grand Rapids Forest Hills Eastern -26.50 19:30.00 19:56.50
Jacob Pratt Hastings -1:19.20 19:33.10 20:52.30
Gloria Park Saline +11.20 19:46.00 19:34.80
Isabelle Leon East Kentwood -6.90 19:35.00 19:41.90
Alexandra Ammann Dexter -1:03.60 19:37.00 20:40.60
Emily Murdoch DeWitt +51.90 20:29.00 19:37.10
Lauren Marsh Traverse City Central +1:26.30 21:05.00 19:38.70
Megan Schwartz Grand Rapids South Christian +12.00 19:52.00 19:40.00
Shelby Waterson DeWitt -19.40 19:40.00 19:59.40
Olivia Bordewyk Caledonia -1:22.50 19:40.00 21:02.50
Katie Moses Traverse City Central -34.40 19:41.00 20:15.40
Darby Meinecke Pinckney -31.50 19:42.00 20:13.50
Krista Magness Grand Ledge -22.10 19:42.00 20:04.10
Haley Betts Plainwell -31.10 19:51.00 20:22.10
Taryn Hubaker Grand Ledge -58.70 19:53.00 20:51.70
Becca Solberg East Grand Rapids -1:05.50 19:54.00 20:59.50
Lindsey Fox Grand Rapids Christian -39.20 19:55.00 20:34.20
Jordan Mattarella Traverse City Central -15.80 19:55.00 20:10.80
Roxy Glasser Grand Haven -10.60 19:57.00 20:07.60
Mikayla Hostetler Richland Gull Lake -35.40 19:59.00 20:34.40
Ally Peirce Portage Central +1:12.90 21:14.00 20:01.10
Ashley Warner Spring Lake -1:07.10 20:02.00 21:09.10
Aly Trapp Brownstown Woodhaven -2:14.70 20:02.00 22:16.70
Brooke Wahl Fremont + 20:03.00 20:03.00
Anita VanderMuelen Ann Arbor Skyline -14.30 20:03.00 20:17.30
Christina Ridella Warren Regina +1:05.60 21:09.00 20:03.40
Jacob Newton Wayland Union +52.00 20:55.70 20:03.70
Riley Delben Monroe +52.70 20:59.00 20:06.30
Brittany Wright Ionia -1:56.40 20:08.00 22:04.40
Jenny Ponkowski Warren Regina -28.60 20:08.00 20:36.60
Jordan Lee DeWitt -11.70 20:11.00 20:22.70
Catherine Croft Coopersville -1:31.60 20:12.00 21:43.60
Kalina Pfannenstiel Traverse City Central -6.60 20:12.00 20:18.60
Maria Kuiper Holland Christian -1:42.20 20:15.00 21:57.20
Christine Cieslak Howell -1:05.70 20:15.00 21:20.70
Brynna Hilton Coopersville +1:10.80 21:27.00 20:16.20
Lyric Bronkema Byron Center -36.20 20:17.00 20:53.20
Robin Jackson Dexter -42.70 20:20.00 21:02.70
Hayley Buckhout Richland Gull Lake +1:15.10 21:36.00 20:20.90
Joe Outinen Kalamazoo Loy Norrix -35.60 20:21.80 20:57.40
Kayla Gercak Portage Northern -1:35.70 20:25.00 22:00.70
Quinn Hall Traverse City West -9.40 20:26.00 20:35.40
Allison Utting Grandville -1:54.10 20:27.00 22:21.10
Abigail Bowman Grand Rapids Forest Hills Eastern -39.10 20:31.00 21:10.10
Maddie Pekrul Cedar Springs -5.50 20:39.00 20:44.50
Dj Bosse Edwardsburg +3.50 20:43.30 20:39.80
Michaela Burnett Cedar Springs +1:01.90 21:42.00 20:40.10
Trista Straube Hastings -42.40 20:41.00 21:23.40
Elizabeth Greve Dexter -2:11.40 20:43.00 22:54.40
Paige Vansickle Caledonia +4:29.00 25:14.00 20:45.00
Kayleigh Shillinger Ludington -25.00 20:45.00 21:10.00
Olivia Conway Grand Ledge -1:26.10 20:45.00 22:11.10
Maggie Dejong Caledonia -2.10 20:46.00 20:48.10
Rachel Mcsween Grand Rapids Forest Hills Northern -17.10 20:49.00 21:06.10
Tea Greca Brownstown Woodhaven -3:00.00 20:53.00 23:53.00
Hayley Sowell Howell -1:44.80 20:56.00 22:40.80
Cailin McLean Dexter +1:14.50 22:17.00 21:02.50
Lydia Dykhouse Grand Rapids South Christian -29.00 21:05.00 21:34.00
Kayla Green Muskegon Mona Shores +48.40 21:54.00 21:05.60
Kaitlyn Leist Temperance-Bedford -50.40 21:06.00 21:56.40
Kaitlyn Rademacher Ionia -1:22.20 21:08.00 22:30.20
Sierra Coay Richland Gull Lake +5:00.50 26:09.00 21:08.50
Bianca Postema Caledonia +2:34.20 23:43.00 21:08.80
Haley Ritsema Grand Rapids South Christian +16.40 21:26.00 21:09.60
Marley Guy Three Rivers +8.80 21:20.00 21:11.20
Cassie Jager Grand Rapids Christian +40.30 21:52.00 21:11.70
Libbey Jones Mason -2:48.50 21:16.00 24:04.50
Anna Raisch Grand Rapids Forest Hills Central -45.40 21:16.00 22:01.40
Janelle Posthuma Grand Rapids Forest Hills Northern +50.80 22:08.00 21:17.20
Jamie Kossuth Spring Lake +1:44.80 23:06.00 21:21.20
Taylor Sterenberg Grand Rapids Forest Hills Eastern +32.60 21:56.00 21:23.40
Cara Hoover Vicksburg -40.40 21:24.00 22:04.40
Elise Argue Grand Rapids Forest Hills Northern -1.20 21:24.00 21:25.20
Leaha Sinnaeve Mason -3:15.50 21:24.00 24:39.50
Leah Mcquone St. Joseph +1:19.80 22:44.00 21:24.20
Allie Donalson Caledonia +16.60 21:41.00 21:24.40
Jenna Koelsch Ionia -15.90 21:26.00 21:41.90
Madison Stone Monroe Jefferson -37.10 21:35.00 22:12.10
Connor Lapres Okemos +38.70 22:19.00 21:40.30
Bailey Rooker South Haven -47.60 21:41.00 22:28.60
Sylvia Knight Portage Central +1:00.10 22:42.00 21:41.90
Layne Corner Allendale -9.20 21:44.00 21:53.20
Gretta Nyboer Spring Lake +1:01.50 22:46.00 21:44.50
Alexis Lyons Mason -55.40 21:47.00 22:42.40
Karina Villalobos Brownstown Woodhaven +41.50 22:30.00 21:48.50
Rachel Rimer Hastings -1.10 21:51.00 21:52.10
Natalee Dally Coldwater -1:32.50 21:53.00 23:25.50
Shelbi Dyke Allendale +1:00.10 22:59.00 21:58.90
Alicia Schmidtendorff Three Rivers -9.70 22:00.00 22:09.70
Lauren Pelkey Grand Rapids Forest Hills Central +48.10 22:49.00 22:00.90
Carley Beemer St. Joseph +2:29.20 24:33.00 22:03.80
Melinda Dietz Brownstown Woodhaven -1:16.10 22:05.00 23:21.10
Hayley Stone Monroe Jefferson -45.80 22:07.00 22:52.80
Oriana Benincasa Plainwell +37.50 22:45.00 22:07.50
Katelyn Moon Portage Northern +2:28.60 24:37.00 22:08.40
Sidney Baxter Battle Creek Lakeview +39.00 22:49.00 22:10.00
Kayla Norris Traverse City West +3:50.10 26:01.00 22:10.90
Stephanie Niemann Battle Creek Lakeview -1:05.60 22:11.00 23:16.60
Jena Eckerd Bay City Western -2.60 22:22.00 22:24.60
Jacqueline Pardee Traverse City West +10.00 22:37.00 22:27.00
Olivia Wait Byron Center +15.20 22:46.00 22:30.80
Gianna Haller Edwardsburg -59.90 22:31.00 23:30.90
Jennifer Keranen Howell +44.80 23:19.00 22:34.20
Camryn Hamstra Jenison -16.00 22:45.00 23:01.00
Samantha Marcath St. Clair +45.10 23:46.00 23:00.90
Michaela Raymond Grand Rapids Kenowa Hills +1:36.70 24:38.00 23:01.30
Colleen Hall Fremont -56.20 23:05.00 24:01.20
Lindsay Ross Zeeland West -40.50 23:06.00 23:46.50
Katie Verbrugge Byron Center +1:19.30 24:34.00 23:14.70
Isabelle Peak Edwardsburg -1:15.60 23:16.00 24:31.60
Kate Belinky Carleton Airport -2:12.10 23:18.00 25:30.10
Victoria Joseph Ionia +54.60 24:14.00 23:19.40
Blake Kuzma Remus Chippewa Hills -19.40 23:20.00 23:39.40
Kyra Braasch Portage Central -1:36.70 23:24.00 25:00.70
Katie Beukema Portage Central +1:31.80 24:59.00 23:27.20
Lindsey Zawacki Monroe +7.20 23:39.00 23:31.80
Ariana Pastrana Portage Northern -1:28.70 23:32.00 25:00.70
Megan Fischer East Kentwood +3:06.10 26:42.00 23:35.90
Dylan Billings Edwardsburg -1:18.50 23:39.90 24:58.40
Hannah Doederlein Carleton Airport -16.60 23:40.00 23:56.60
Kelly Peng Battle Creek Lakeview -21.80 23:44.00 24:05.80
Jordan Peterson Kalamazoo Loy Norrix +1:08.10 24:53.00 23:44.90
Kayla Kooistra Grant +2:21.90 26:09.00 23:47.10
Abby Laubaugh Hastings +47.30 24:35.00 23:47.70
Alyssa Blain Grant -16.30 23:50.00 24:06.30
Brittany Udell Edwardsburg -1:05.10 23:51.00 24:56.10
Maycee Frey St. Clair +2:05.70 25:58.00 23:52.30
Rachel Gatica Zeeland West +1:31.20 25:26.00 23:54.80
Taylor Bouwkamp Byron Center +2:05.40 26:03.00 23:57.60
Olivia Nichols South Haven +1:36.70 26:14.00 24:37.30
Susan Lamb Grand Rapids Kenowa Hills -1:44.90 24:48.00 26:32.90
Kelsie Boyer Monroe -2:55.30 24:51.00 27:46.30
Sara Stoner Grand Rapids Forest Hills Central -11.70 25:02.00 25:13.70
Ali Kelley Grant +18.80 25:23.00 25:04.20
Christine Ringel Grand Rapids Forest Hills Central -2:02.00 26:14.00 28:16.00
Celia Fuller Muskegon -2:10.20 26:53.00 29:03.20
Abigail Crocker Muskegon -2:23.10 27:59.00 30:22.10